Terminal Aerodrome Forecast
Issued by NWS Key West, FL

Home | Current Version | Previous Version | Text Only | Print | Product List | Glossary On
Versions: 1 2 3 4 5 6 7 8 9 10 11 12 13 14 15 16 17 18 19 20 21 22 23 24 25 26 27 28 29 30 31 32 33 34 35 36 37 38 39 40 41 42 43 44 45 46 47 48
000
FTUS42 KKEY 250300 AAC
TAFEYW
TAF AMD
KEYW 250305Z 2503/2524 18010KT P6SM FEW023 SCT040 BKN080
     FM250500 24010G17KT P6SM VCSH SCT014 SCT022 BKN070
     FM250800 28009KT 3SM SHRA SCT009 BKN020 OVC060
     FM251400 35010G17KT P6SM BKN015 BKN040=

USA.gov is the U.S. government's official web portal to all federal, state and local government web resources and services.